Regional Weather Roundup
Issued by NWS

Home | Current Version | Previous Version | Graphics & Text | Print | Product List | Glossary Off
Versions: 1 2 3 4 5 6 7 8 9 10 11 12 13 14 15 16 17 18 19 20 21 22 23 24 25 26 27 28 29 30 31 32 33 34 35 36 37 38 39 40 41 42 43 44 45 46 47 48 49 50

000
ASUS43 KTOP 051108
RWRKS

WEATHER ROUNDUP FOR KANSAS
NATIONAL WEATHER SERVICE GOODLAND KS
500 AM CST THU MAR 05 2015

NOTE:  "FAIR" INDICATES FEW OR NO CLOUDS BELOW 12,000 FEET WITH NO
SIGNIFICANT WEATHER AND/OR OBSTRUCTIONS TO VISIBILITY.

KSZ001>006-013>018-027>032-041>047-051200-
NORTHWEST KANSAS

CITY           SKY/WX    TMP DP  RH WIND       PRES   REMARKS
GOODLAND       CLEAR     14   9  80 W10       30.27S WCI   1
HAYS           CLEAR     12  -2  52 CALM      30.38S
HILL CITY      FAIR       8   1  73 CALM      30.38R
RUSSELL        CLEAR     11   5  77 E3        30.39S
$$

KSZ061>065-074>080-084>089-051200-
SOUTHWEST KANSAS

CITY           SKY/WX    TMP DP  RH WIND       PRES   REMARKS
DODGE CITY     CLEAR     19  12  74 W9        30.39R
ELKHART          N/A     16   9  74 W9          N/A
GARDEN CITY    CLEAR     15  12  88 W8        30.36S
GREAT BEND     CLEAR     10   1  67 CALM      30.41S
LIBERAL        CLEAR     12   7  79 W9        30.41R
PRATT          CLEAR      9   1  72 W7        30.43R
$$

KSZ066>073-081>083-090>101-051200-
SOUTHEAST KANSAS

CITY           SKY/WX    TMP DP  RH WIND       PRES   REMARKS
CHANUTE        CLEAR     16  10  77 N6        30.48R
COFFEYVILLE    CLEAR     17  10  74 NW5       30.50R
HUTCHINSON     CLEAR     10   4  76 CALM      30.45R
MEDICINE LODGE   N/A     10   7  87 N3        30.46R
NEWTON         CLEAR     16   1  53 NE5       30.46R
PARSONS        CLEAR     12  10  92 CALM      30.49R
WICHITA INTL   CLEAR     15   8  73 NE6       30.47R
WICHITA JABRA  CLEAR     14   6  70 N5        30.46R
WICHITA MCCONL CLEAR     16   8  71 N3        30.46R
WINFIELD       CLEAR     15  10  80 CALM      30.49R
$$

KSZ007>012-019>026-033>040-048>060-102>105-051200-
NORTHEAST KANSAS

CITY           SKY/WX    TMP DP  RH WIND       PRES   REMARKS
CONCORDIA      PTCLDY     8   1  73 E3        30.46S
EMPORIA        CLEAR     11   3  70 N5        30.48R
LAWRENCE       CLEAR      9   1  70 N5        30.53R
MANHATTAN      CLEAR     12   4  70 CALM      30.51R
MARYSVILLE     CLEAR      9   0  66 CALM      30.49R
OLATHE IND     CLEAR      9   1  70 N8        30.51R
OLATHE EXE     CLEAR     13   1  59 N6        30.49R
SALINA         CLEAR     15   3  59 NE5       30.49R
TOPEKA BILLARD CLEAR     11   3  70 N5        30.54R
TOPEKA FORBES  CLEAR     13   3  64 N5        30.51R
$$


USA.gov is the U.S. government's official web portal to all federal, state and local government web resources and services.